Terminal Aerodrome Forecast
Issued by NWS Upton, NY

Home | Current Version | Previous Version | Text Only | Print | Product List | Glossary On
Versions: 1 2 3 4 5 6 7 8 9 10 11 12 13 14 15 16 17 18 19 20 21 22 23 24 25 26 27 28 29 30 31 32 33 34 35 36 37
000
FTUS41 KOKX 220235 AAA
TAFISP
TAF AMD
KISP 220235Z 2203/2224 VRB03KT 1/4SM FG OVC001
     FM221500 07007KT 1SM BR OVC004
     FM221800 07010KT 3SM BR OVC009
     FM222200 08016G23KT 2SM -RA OVC007=

USA.gov is the U.S. government's official web portal to all federal, state and local government web resources and services.